TimeEST,TemperatureF,Dew PointF,Humidity,Sea Level PressureIn,VisibilityMPH,Wind Direction,Wind SpeedMPH,Gust SpeedMPH,PrecipitationIn,Events,Conditions,WindDirDegrees,DateUTC
12:53 AM,30.0,24.1,79,30.34,5.0,West,8.1,-,N/A,,Haze,260,2013-01-07 05:53:00
1:10 AM,30.2,24.8,80,30.31,5.0,West,9.2,-,N/A,,Haze,260,2013-01-07 06:10:00
1:53 AM,28.0,23.0,81,30.34,5.0,West,5.8,-,N/A,,Haze,260,2013-01-07 06:53:00
2:39 AM,26.6,21.2,80,30.32,4.0,WSW,5.8,-,N/A,,Haze,250,2013-01-07 07:39:00
2:53 AM,26.1,21.0,81,30.36,4.0,Calm,Calm,-,N/A,,Haze,0,2013-01-07 07:53:00
3:53 AM,21.9,18.0,85,30.38,2.5,SW,3.5,-,N/A,,Clear,220,2013-01-07 08:53:00
4:53 AM,21.0,18.0,88,30.38,3.0,SSW,6.9,-,N/A,,Clear,200,2013-01-07 09:53:00
5:13 AM,21.2,17.6,86,30.33,2.5,South,6.9,-,N/A,,Clear,190,2013-01-07 10:13:00
5:53 AM,19.9,17.1,89,30.39,2.5,SSW,4.6,-,N/A,,Clear,210,2013-01-07 10:53:00
6:51 AM,19.4,15.8,86,30.36,3.0,SSW,5.8,-,N/A,,Clear,200,2013-01-07 11:51:00
6:53 AM,19.0,16.0,88,30.40,3.0,SSW,8.1,-,N/A,,Clear,210,2013-01-07 11:53:00
7:17 AM,19.4,15.8,86,30.37,2.5,SSW,6.9,-,N/A,,Clear,200,2013-01-07 12:17:00
7:29 AM,19.4,15.8,86,30.37,3.0,SSW,8.1,-,N/A,,Clear,200,2013-01-07 12:29:00
7:53 AM,19.9,16.0,85,30.41,3.0,South,9.2,-,N/A,,Clear,190,2013-01-07 12:53:00
8:15 AM,19.4,15.8,86,30.37,2.5,SSW,8.1,-,N/A,,Clear,200,2013-01-07 13:15:00
8:32 AM,19.4,15.8,86,30.37,3.0,SSW,8.1,-,N/A,,Clear,200,2013-01-07 13:32:00
8:53 AM,19.9,17.1,89,30.40,3.0,South,9.2,-,N/A,,Clear,190,2013-01-07 13:53:00
10:53 AM,27.0,19.9,75,30.40,7.0,SSW,12.7,-,N/A,,Clear,200,2013-01-07 15:53:00
11:53 AM,30.0,21.9,72,30.37,9.0,SSW,16.1,21.9,N/A,,Clear,200,2013-01-07 16:53:00
12:53 PM,32.0,23.0,69,30.32,10.0,South,16.1,23.0,N/A,,Clear,190,2013-01-07 17:53:00
2:53 PM,35.1,23.0,61,30.26,10.0,SSW,20.7,25.3,N/A,,Clear,200,2013-01-07 19:53:00
3:53 PM,34.0,23.0,64,30.26,10.0,SSW,19.6,26.5,N/A,,Clear,200,2013-01-07 20:53:00
4:53 PM,33.1,23.0,66,30.25,10.0,SSW,15.0,-,N/A,,Clear,200,2013-01-07 21:53:00
6:53 PM,30.9,21.9,69,30.24,10.0,South,9.2,-,N/A,,Clear,190,2013-01-07 23:53:00
7:53 PM,28.9,21.9,75,30.22,7.0,South,10.4,-,N/A,,Clear,170,2013-01-08 00:53:00
8:53 PM,28.9,21.9,75,30.20,7.0,South,9.2,-,N/A,,Clear,170,2013-01-08 01:53:00
9:53 PM,28.9,21.9,75,30.18,7.0,South,12.7,-,N/A,,Clear,180,2013-01-08 02:53:00
10:53 PM,28.9,21.9,75,30.18,7.0,SSW,11.5,-,N/A,,Clear,200,2013-01-08 03:53:00
11:53 PM,28.9,21.0,72,30.20,7.0,SW,10.4,-,N/A,,Clear,220,2013-01-08 04:53:00